Location: Bowman Observatory
(41.0326°N, 73.6210°W)
Time: 16:18:08
(UTC-04:00)

Cosmos 2298 Rocket - Visible Passes

Search period start: 01 September 2015 00:00
Search period end: 11 September 2015 00:00
Orbit: 777 x 783 km, 74.0° (Epoch: 31 August)

Date Brightness Start Highest point End Pass type
(mag) Time Alt. Az. Time Alt. Az. Time Alt. Az.
01 Sep 6.5 05:45:17 10° SSE 05:49:25 25° E 05:53:42 10° NE visible
02 Sep 6.9 05:13:22 10° SE 05:16:14 15° E 05:19:21 10° ENE visible
04 Sep 5.0 05:46:16 10° S 05:51:22 52° ESE 05:56:30 10° NNE visible
05 Sep 5.8 05:13:29 10° SSE 05:18:06 32° E 05:22:48 10° NE visible
06 Sep 6.5 04:41:09 10° SE 04:44:53 20° E 04:48:47 10° NE visible
07 Sep 6.8 04:09:43 10° ESE 04:11:43 12° E 04:14:02 10° ENE visible
07 Sep 4.0 05:48:09 10° SSW 05:53:27 76° WNW 05:58:46 10° NNE visible
08 Sep 4.3 05:14:51 10° S 05:20:04 69° ESE 05:25:22 10° NNE visible
09 Sep 5.1 04:41:50 10° S 04:46:47 43° ESE 04:51:48 10° NNE visible
10 Sep 5.9 04:09:13 10° SSE 04:13:32 27° E 04:18:00 10° NE visible
10 Sep 4.7 05:50:51 10° SW 05:55:44 37° WNW 06:00:38 10° N visible
